CAPE
6 106 475 507 531 936 763 1043 989 1230 1028 881 911 958 924 838 966 1007 948 879 967 873 1052 1036 1001 941 990 778 1054 1156 771 1057 1284 761 772 949 1248 1320 1859 1814 1402 1816 2058
37 254 844 672 854 1076 914 1082 1237 1239 1245 1387 1036 950 1268 963 1008 1227 1080 1113 1115 1127 891 784 1004 1136 1272 1440 1144 604 302 447 954 1318 1105 1064 1032 993 1355 2032 1067 1514 1980
63 492 974 1038 1175 1087 1201 948 1116 1165 1253 1337 1222 1258 1087 1176 1397 1268 1264 1121 1099 1081 982 782 518 803 1001 887 1372 1264 635 739 1143 1168 774 714 878 1273 915 1273 1057 1584 1770
227 688 961 939 1372 1249 650 1188 1410 1098 1254 1303 1361 1306 1158 1138 1150 1143 1177 1257 1256 1103 1041 1117 1277 744 484 842 913 940 766 688 629 1228 580 205 564 1438 1141 953 687 1095 1953
268 551 1024 1037 916 920 1223 1116 889 1257 1207 985 636 836 1013 1033 872 666 547 555 755 697 682 877 1116 1069 1082 559 362 442 708 637 459 887 135 0 323 1074 1576 1440 1678 1935 2148
240 580 1072 1023 1353 1398 1406 1065 956 248 164 352 465 412 335 345 352 396 296 276 457 450 517 749 1069 1323 1272 1192 1046 629 283 229 330 255 428 293 54 476 1515 1367 1968 1995 2254
222 749 921 1273 1228 1217 568 341 389 918 670 639 496 421 388 393 384 402 505 601 606 726 1028 1313 1290 1105 1041 1213 1046 1012 985 707 449 156 264 364 539 418 1366 1164 1403 1880 2520
256 765 1155 982 788 415 532 772 653 355 325 307 352 293 271 333 408 494 612 767 993 1084 1161 1227 1129 1201 1172 1097 1201 1274 1135 1113 1146 716 849 1051 911 770 764 1346 1564 1679 1839
315 302 569 254 572 680 816 509 246 222 336 361 341 471 648 777 765 776 695 754 648 746 788 794 925 1034 1032 986 903 873 1135 1280 958 1006 1120 1056 731 615 584 935 1389 1582 1389
92 26 32 77 739 642 398 257 246 325 310 354 458 624 745 919 936 1125 1077 734 813 873 917 1032 1039 974 944 804 992 1022 1154 1164 1167 1149 1230 1140 763 879 1072 835 1118 1115 1039
19 3 0 0 147 156 71 111 201 279 524 727 984 1205 1181 940 809 1056 1309 1468 1566 1276 1099 1324 1421 1333 1113 1309 1346 1232 1328 1252 1018 872 1280 1351 1074 1089 1158 1255 1093 1037 1010
47 107 112 33 54 55 3 0 127 281 533 765 912 1188 1151 1108 1041 1109 411 1334 950 1132 1095 1306 1284 1196 1122 1029 888 1429 1402 1138 916 542 1080 1401 1324 1306 1425 1468 1615 1774 1723
82 135 140 159 123 90 0 0 115 321 547 758 899 171 663 1016 1193 624 459 518 671 10 125 853 866 396 769 921 641 419 227 719 1182 1250 1088 1232 1252 1527 1879 1486 744 344 375
45 42 80 148 169 130 182 80 283 570 872 979 1412 309 585 816 568 337 0 0 1024 647 646 994 1203 1226 925 918 877 847 727 682 1274 1382 1299 1406 1694 1802 618 99 148 240 540
2 23 90 175 645 393 414 589 665 664 566 573 1498 992 900 343 175 17 0 5 373 747 1085 1295 1212 1272 1300 1102 1132 1119 1264 1308 1287 1425 1335 1706 1589 422 201 463 907 927 1235
0 0 10 129 434 837 1020 943 1132 1016 817 771 737 966 756 415 48 12 259 293 946 1088 1030 1125 932 1076 1128 1292 1174 1319 1520 1487 1271 1290 1337 1469 548 203 476 812 905 1101 1147
0 0 0 28 302 805 1131 784 724 511 413 847 845 1229 958 57 198 478 895 1034 960 1277 1431 1437 738 640 106 48 90 705 1363 1202 932 1073 911 379 486 358 467 512 557 803 885
0 5 12 37 168 640 912 1133 976 679 403 771 1069 933 960 1016 475 1101 1371 1419 868 771 995 1136 949 764 163 5 0 2 563 649 599 711 399 164 178 310 382 250 164 165 379
0 0 0 28 143 342 937 1261 1377 1386 990 732 1033 1014 1061 1355 682 839 1204 1325 1326 1116 940 920 1028 940 273 88 15 43 124 325 346 393 82 93 60 51 305 337 124 61 216
0 0 0 20 33 354 809 1054 1273 1293 959 789 1060 1099 815 916 423 562 934 1036 1302 1030 947 863 764 704 177 107 4 0 75 299 327 244 184 79 38 10 50 465 93 26 220
0 0 0 41 212 348 742 888 582 980 447 928 950 981 499 732 989 908 679 80 1304 1215 1671 752 601 454 299 102 31 0 0 165 583 354 226 188 82 41 64 341 91 58 263
0 0 0 45 227 340 583 1073 1284 1152 1154 1168 1016 489 382 601 909 925 533 441 1508 1697 1420 1128 661 110 409 144 67 0 0 2 92 398 335 276 207 236 233 179 187 97 72
0 0 0 205 400 453 524 590 792 831 620 951 864 518 935 647 775 926 819 894 1670 1502 1367 1247 924 391 89 542 48 90 11 31 10 0 56 177 241 247 107 180 123 61 89
0 0 0 73 664 444 360 333 522 415 397 569 632 894 492 696 905 1133 1182 1328 1984 1633 1833 1576 1440 856 321 138 347 95 43 84 30 0 0 11 60 86 27 14 41 59 53
0 0 0 32 333 297 206 246 408 301 491 348 615 1317 910 799 1065 889 1036 1115 1665 2137 1712 2124 1746 1321 789 73 255 622 27 5 31 12 0 0 0 0 0 0 0 15 28
0 0 0 4 116 307 206 79 22 213 402 167 49 268 810 946 340 624 1141 1161 1623 1719 1968 1705 1745 1734 1296 382 352 399 0 3 34 24 4 0 0 0 0 0 0 12 12
CIN
-55 -71 -13 -0 -5 -0 -2 -0 -0 -0 -0 -0 -0 -0 -0 -1 -0 -0 -8 -9 -10 -26 -17 -5 -2 -11 -12 -22 -22 -21 -33 -24 -22 -42 -55 -58 -42 -37 -21 -4 -19 -12 -1
-175 -54 -0 -4 -0 -0 -0 -0 -0 -0 -0 -0 -0 -0 -0 -0 -0 -0 -0 -0 -1 -2 -12 -13 -7 -1 -0 -0 -9 -43 -79 -61 -34 -20 -18 -26 -41 -38 -13 -4 -37 -18 -1
-165 -33 -0 -0 -0 -0 -0 -0 -0 -1 -0 -0 -0 -0 -0 -0 -0 -0 -0 -0 -0 -0 -0 -3 -30 -21 -14 -25 -5 -15 -53 -44 -22 -20 -30 -43 -35 -7 -18 -8 -19 -9 -5
-115 -17 -6 -3 -0 -0 -4 -0 -0 -2 -0 -0 -0 -0 -0 -0 -0 -0 -0 -0 -0 -0 -3 -0 -0 -12 -41 -20 -23 -19 -36 -46 -54 -12 -42 -91 -52 -15 -23 -15 -23 -10 -2
-90 -49 -14 -9 -0 -3 -0 -0 -1 -0 -0 -0 -13 -8 -4 -2 -17 -34 -37 -34 -22 -18 -11 -2 -1 -8 -6 -48 -71 -70 -47 -62 -76 -40 -105 -0 -93 -34 -2 -14 -13 -3 -0
-112 -60 -16 -9 -0 -0 -0 -0 -8 -59 -78 -56 -36 -56 -77 -82 -76 -69 -90 -93 -58 -49 -38 -28 -13 -6 -12 -18 -23 -63 -109 -107 -91 -103 -89 -99 -158 -71 -12 -17 -2 -3 -0
-139 -54 -34 -2 -0 -0 -51 -75 -73 -22 -42 -37 -56 -70 -81 -72 -67 -65 -61 -50 -52 -47 -28 -6 -11 -29 -31 -14 -25 -25 -35 -53 -73 -134 -102 -96 -95 -106 -35 -33 -25 -16 -0
-148 -73 -24 -24 -45 -79 -66 -49 -47 -65 -68 -77 -78 -101 -117 -100 -88 -71 -61 -44 -30 -31 -39 -33 -33 -26 -28 -30 -22 -16 -24 -26 -20 -29 -37 -54 -49 -35 -39 -20 -19 -24 -18
-147 -153 -91 -121 -81 -61 -60 -68 -101 -99 -89 -80 -81 -74 -67 -57 -58 -58 -55 -47 -56 -56 -57 -62 -45 -32 -33 -35 -40 -37 -25 -24 -25 -29 -36 -55 -72 -59 -54 -43 -21 -24 -36
-207 -280 -256 -200 -76 -88 -101 -124 -124 -87 -72 -60 -54 -52 -53 -43 -57 -57 -49 -54 -43 -46 -44 -49 -50 -52 -45 -57 -38 -33 -25 -26 -33 -52 -51 -51 -71 -57 -40 -51 -37 -27 -25
-278 -115 -0 -0 -216 -237 -265 -196 -126 -79 -67 -49 -42 -29 -25 -57 -72 -63 -54 -40 -31 -45 -44 -26 -37 -45 -54 -47 -41 -43 -45 -58 -64 -76 -72 -46 -50 -50 -42 -36 -33 -24 -19
-253 -225 -226 -301 -297 -302 -186 -0 -147 -83 -75 -60 -67 -62 -70 -59 -47 -67 -100 -56 -61 -69 -53 -51 -54 -61 -63 -64 -76 -47 -48 -70 -87 -96 -83 -47 -47 -53 -52 -49 -32 -12 -7
-212 -199 -203 -178 -207 -232 -0 -0 -158 -78 -63 -59 -83 -187 -83 -58 -62 -114 -108 -113 -95 -24 -159 -76 -83 -128 -72 -82 -91 -121 -193 -101 -74 -82 -92 -82 -70 -48 -39 -59 -90 -144 -143
-260 -252 -223 -189 -164 -166 -138 -197 -80 -61 -59 -59 -49 -102 -54 -64 -86 -138 -0 -0 -90 -121 -100 -81 -78 -76 -94 -90 -85 -85 -92 -97 -94 -84 -89 -79 -55 -37 -91 -233 -214 -188 -115
-209 -280 -221 -155 -72 -116 -114 -73 -52 -55 -72 -60 -43 -65 -91 -122 -170 -103 -0 -36 -129 -111 -88 -78 -67 -64 -58 -70 -73 -78 -69 -71 -93 -95 -100 -67 -60 -129 -160 -110 -95 -92 -63
-0 -0 -302 -169 -97 -47 -30 -34 -37 -51 -53 -51 -50 -45 -118 -144 -100 -53 -154 -167 -87 -63 -71 -85 -68 -52 -51 -65 -60 -63 -70 -64 -88 -104 -106 -90 -119 -177 -105 -70 -64 -64 -56
-0 -0 -0 -265 -100 -39 -30 -43 -48 -61 -62 -44 -39 -46 -61 -70 -94 -94 -74 -85 -58 -67 -94 -70 -67 -67 -147 -159 -177 -79 -61 -61 -98 -111 -136 -150 -119 -136 -82 -80 -77 -67 -54
-0 -377 -332 -252 -133 -50 -50 -36 -49 -59 -73 -58 -38 -36 -74 -76 -103 -85 -73 -50 -63 -49 -48 -39 -47 -50 -99 -93 -0 -28 -95 -86 -99 -125 -159 -189 -194 -131 -102 -126 -135 -124 -67
-0 -0 -0 -283 -155 -79 -50 -41 -46 -46 -45 -55 -39 -34 -32 -44 -73 -45 -43 -57 -53 -49 -53 -41 -50 -55 -86 -155 -220 -133 -143 -146 -132 -158 -216 -224 -269 -260 -149 -117 -151 -185 -72
-0 -0 -0 -224 -197 -75 -53 -58 -58 -44 -46 -54 -43 -34 -41 -38 -50 -48 -44 -49 -51 -50 -62 -75 -72 -89 -151 -179 -71 -0 -110 -112 -141 -153 -172 -244 -275 -302 -226 -98 -163 -180 -53
-0 -0 -0 -255 -113 -83 -55 -54 -44 -24 -49 -39 -37 -33 -34 -36 -44 -33 -54 -170 -43 -46 -40 -92 -102 -98 -109 -172 -176 -0 -0 -125 -108 -123 -168 -172 -188 -224 -180 -85 -143 -121 -40
-0 -0 -0 -247 -104 -69 -40 -30 -30 -29 -32 -43 -40 -45 -46 -42 -56 -45 -64 -95 -46 -39 -44 -51 -91 -167 -87 -145 -119 -0 -0 -2 -82 -93 -115 -121 -108 -101 -103 -102 -89 -103 -98
-0 -0 -0 -161 -102 -84 -71 -62 -54 -50 -34 -27 -32 -37 -39 -45 -46 -53 -72 -68 -45 -43 -34 -50 -61 -81 -106 -71 -141 -73 -22 -36 -39 -0 -118 -113 -101 -67 -87 -77 -88 -88 -100
-0 -0 -0 -241 -92 -95 -113 -105 -67 -61 -46 -29 -34 -54 -41 -40 -42 -42 -37 -46 -31 -39 -28 -35 -39 -35 -57 -66 -58 -74 -66 -85 -28 -0 -0 -146 -128 -78 -83 -74 -72 -90 -119
-0 -0 -0 -262 -138 -111 -113 -118 -85 -86 -69 -80 -48 -37 -37 -36 -43 -37 -36 -28 -27 -28 -33 -22 -25 -24 -31 -70 -50 -21 -128 -142 -86 -63 -1 -0 -0 -0 -0 -0 -0 -107 -103
-0 -0 -0 -75 -190 -161 -147 -162 -121 -115 -79 -122 -157 -83 -43 -37 -82 -58 -48 -47 -22 -17 -23 -19 -23 -26 -24 -38 -43 -40 -0 -56 -32 -73 -38 -0 -0 -0 -0 -0 -2 -70 -80
Wind_Speed
28 29 28 24 23 23 22 19 6 26 28 29 29 29 28 28 28 28 28 28 29 28 27 27 27 26 26 25 26 25 25 24 20 19 25 22 21 21 22 22 20 20 17
33 30 27 25 23 22 26 24 26 24 29 29 29 28 28 28 27 27 27 27 27 27 26 25 25 25 24 24 24 24 24 22 22 22 22 22 21 19 20 22 23 24 22
32 28 26 24 25 28 26 27 28 27 28 28 28 28 28 28 28 27 27 27 26 26 25 24 24 24 24 23 23 24 23 21 21 22 23 22 21 21 22 21 23 23 23
29 27 24 26 25 29 28 27 27 26 25 26 25 26 26 26 26 25 25 25 24 24 24 24 24 23 23 23 23 23 22 21 21 20 21 20 21 21 21 21 22 22 24
26 26 29 29 27 28 27 27 25 25 25 24 24 25 25 24 24 24 24 24 23 23 22 22 23 23 23 22 22 22 21 21 20 21 20 21 20 20 20 20 21 22 22
31 31 31 30 28 28 27 26 25 25 25 24 24 24 24 23 22 22 22 22 21 21 22 22 22 22 22 22 22 21 21 20 20 19 19 18 19 19 19 19 19 19 18
33 32 31 29 28 27 26 26 26 25 25 24 24 23 22 21 20 19 19 20 20 20 21 21 22 22 21 21 21 20 20 20 20 20 18 18 18 18 18 18 18 17 17
34 31 29 29 28 27 26 25 25 24 24 23 22 22 21 20 19 18 18 18 19 19 20 20 20 20 20 20 20 20 20 20 19 19 17 17 18 18 17 17 17 16 16
32 32 29 28 28 27 26 26 25 24 24 23 21 20 19 18 18 17 17 17 18 18 18 18 18 18 19 19 19 19 19 20 19 18 16 16 18 17 16 16 15 15 15
32 31 30 29 27 27 26 26 25 25 24 22 21 19 18 18 18 18 18 17 17 17 18 18 17 18 18 19 19 20 19 18 18 17 15 15 17 16 15 14 13 13 12
30 31 30 29 28 28 26 25 24 23 22 20 19 17 15 16 16 15 17 17 17 18 17 17 17 18 18 18 18 19 18 18 17 15 13 14 15 14 12 11 10 9 8
30 30 30 30 29 28 26 24 24 22 21 19 18 17 16 16 18 17 15 16 17 17 17 17 17 17 17 17 17 16 16 15 15 14 14 13 14 13 11 10 9 8 7
30 29 30 29 28 27 25 23 21 21 21 21 18 19 18 17 18 17 15 16 16 16 16 16 16 15 15 16 16 15 15 12 12 12 12 13 12 11 10 11 10 9 8
30 30 29 27 26 25 24 22 20 20 20 19 19 19 18 19 18 16 16 15 16 16 15 14 15 14 14 13 14 13 12 12 12 12 11 10 9 10 10 11 12 12 11
30 30 28 28 25 25 25 23 22 21 20 19 18 17 22 21 18 12 15 15 14 14 14 14 14 14 12 11 12 12 12 11 10 10 9 9 9 10 9 11 12 13 13
29 29 28 26 25 25 24 23 22 21 19 19 18 17 21 22 15 15 13 13 12 14 14 14 13 12 10 10 11 11 10 9 8 9 8 8 8 9 10 11 12 14 13
27 26 26 24 25 23 22 21 19 18 19 18 17 17 19 20 20 18 16 14 14 13 13 15 16 15 14 14 11 8 8 7 7 6 6 6 8 9 10 11 12 14 12
24 25 24 23 24 23 22 20 18 18 17 16 17 17 18 18 18 19 18 20 20 17 18 17 17 15 14 16 8 10 7 5 5 5 6 8 8 9 10 11 13 11 10
21 21 22 22 22 22 21 20 19 17 16 16 16 16 17 19 18 19 20 19 18 20 19 17 18 16 17 15 11 10 9 7 7 7 7 8 8 9 11 11 11 10 9
20 21 19 21 21 22 21 20 18 15 15 14 17 18 17 18 18 17 16 17 17 19 20 19 19 18 18 18 16 15 15 10 9 8 7 8 8 10 11 10 10 10 10
18 17 18 19 21 16 15 17 17 15 15 15 19 18 18 17 17 16 14 14 15 17 18 21 18 21 19 23 21 22 23 18 12 9 8 8 7 8 9 8 9 10 9
20 17 16 16 17 15 11 12 13 14 15 17 17 17 17 17 16 15 15 14 14 15 16 18 21 20 21 24 22 18 18 19 17 9 9 8 7 8 9 8 8 8 8
19 18 16 16 19 17 14 11 10 12 14 14 14 14 14 14 14 14 14 13 13 15 15 16 20 20 21 21 22 21 19 19 15 13 14 10 8 8 10 9 10 8 8
20 19 18 17 18 18 14 10 10 9 12 11 11 11 14 14 12 11 11 12 12 14 15 16 18 20 19 20 19 20 20 24 17 14 13 15 14 12 12 13 11 10 10
19 19 19 19 18 17 15 12 10 8 8 8 12 12 11 11 9 8 7 7 9 13 15 15 16 17 17 17 17 17 19 20 16 13 14 12 15 13 12 12 11 11 12
14 17 19 19 19 18 15 13 11 8 6 4 6 10 9 8 7 7 4 6 6 9 12 13 13 13 14 14 15 16 17 22 16 14 14 12 12 11 12 11 11 11 11
Wind_Direction
160 143 150 164 162 161 161 164 162 81 92 100 108 103 96 95 95 96 90 91 106 114 116 114 113 116 142 150 135 136 117 122 78 163 121 151 141 138 133 111 88 93 81
140 149 159 164 165 167 150 150 120 73 106 102 105 110 100 98 95 96 91 96 102 111 119 123 125 128 148 153 146 146 141 128 122 151 137 141 136 142 140 127 133 124 108
128 164 165 169 161 142 150 142 109 97 111 126 117 116 115 112 104 108 106 106 108 108 114 119 134 144 150 152 152 148 148 142 145 134 134 128 133 132 129 125 133 123 115
147 170 171 162 159 141 143 138 108 135 142 139 139 132 129 126 120 121 120 118 121 123 123 122 130 142 149 149 155 153 149 144 146 153 153 152 139 134 128 126 139 129 118
173 170 155 145 152 143 141 131 148 149 147 145 142 135 128 129 131 126 121 120 123 126 129 133 133 138 145 150 151 153 156 156 153 153 152 150 145 144 133 123 124 123 117
156 150 144 141 148 144 145 149 147 146 144 142 139 135 131 133 132 127 127 132 136 134 134 136 136 140 140 147 154 158 157 160 164 164 163 156 152 146 138 136 131 125 120
136 144 143 148 150 150 151 147 142 142 141 140 139 137 136 141 146 146 149 149 146 143 145 146 144 142 142 146 149 154 161 162 162 165 161 160 150 139 135 128 129 123 123
132 152 157 154 153 151 151 149 148 148 149 146 142 138 137 141 150 161 166 164 158 152 147 150 151 146 144 148 150 151 153 156 158 155 161 169 166 152 140 136 132 126 126
140 145 156 155 153 151 149 147 145 145 145 145 144 144 143 147 149 156 165 164 161 159 158 161 162 159 151 147 142 143 149 158 155 159 158 146 139 134 138 137 133 132 131
140 137 151 155 157 152 146 143 143 139 137 141 143 147 147 142 142 151 156 163 171 168 170 172 169 166 156 149 141 140 142 142 149 157 156 137 138 136 138 135 135 137 136
150 147 153 152 153 151 146 146 145 144 141 144 149 152 159 159 154 169 157 152 168 177 176 170 166 165 155 154 145 143 133 131 135 138 130 130 132 134 133 124 121 125 128
147 153 148 149 149 147 146 143 140 140 139 140 152 150 146 145 155 155 179 177 159 169 172 169 167 161 156 141 133 136 133 129 126 117 115 119 120 126 114 102 100 111 129
144 152 154 153 153 147 145 144 143 142 134 131 141 137 129 132 120 137 170 168 172 170 167 169 160 165 162 147 131 124 118 121 130 120 114 118 124 111 95 73 62 46 61
150 153 151 151 157 155 150 147 148 146 142 133 125 125 126 117 116 144 155 164 162 169 170 174 163 163 163 162 134 133 134 128 137 127 129 132 111 80 62 55 47 31 24
150 149 141 143 143 141 142 133 129 124 126 126 128 130 95 107 115 234 156 159 167 179 173 172 157 150 154 152 147 135 139 137 141 132 116 110 87 60 45 35 32 33 9
148 145 141 146 137 138 128 129 127 118 126 121 122 143 97 90 135 175 170 173 177 169 168 149 145 146 150 154 165 158 141 131 115 118 99 83 68 45 31 30 24 20 10
137 135 145 144 147 147 141 135 122 125 127 114 122 131 120 97 114 119 138 159 152 141 150 125 95 105 96 84 87 150 124 124 119 105 76 74 53 41 37 30 20 17 19
129 138 144 142 146 153 145 129 125 126 129 140 144 140 113 123 110 112 109 110 98 97 79 69 68 82 76 56 98 87 109 122 106 87 75 86 69 56 44 33 23 25 29
130 131 133 132 134 142 147 140 143 129 132 141 147 134 131 121 116 105 86 100 91 67 68 74 70 71 62 58 68 79 63 95 91 91 94 104 74 58 44 38 38 42 35
134 133 127 131 135 144 150 152 160 126 128 134 146 137 115 118 112 77 85 78 79 70 55 63 53 55 54 44 51 49 43 68 75 82 111 98 65 49 40 46 47 41 43
133 129 134 139 143 124 117 127 138 108 118 122 122 126 109 115 110 82 88 95 66 49 48 40 50 41 42 32 41 38 32 44 65 79 82 81 89 60 56 62 55 49 49
142 139 137 144 147 136 106 100 93 93 88 112 116 121 120 105 110 92 75 78 75 59 47 39 33 41 36 33 38 42 36 28 39 83 79 83 72 57 50 56 53 50 44
147 148 144 145 154 148 137 115 79 91 83 95 113 130 133 117 109 103 90 75 66 47 49 46 36 36 33 34 36 36 32 25 35 56 49 50 55 44 39 47 40 46 41
156 152 151 150 153 157 145 131 129 99 113 72 89 139 140 137 112 111 106 72 62 48 37 36 33 28 30 30 37 37 36 24 16 35 59 43 41 41 40 39 42 42 42
150 157 158 160 163 164 161 152 141 125 118 61 32 37 103 140 131 142 115 101 63 34 27 32 29 28 32 35 37 39 41 42 32 34 23 46 43 45 46 44 47 48 49
145 152 159 162 166 168 167 164 159 148 128 78 45 28 48 64 77 60 91 109 81 43 32 27 29 29 34 40 37 38 40 31 34 26 25 40 36 44 46 50 53 55 55